Flag for South Africa Weather past 2 weeks in Durban, South Africa

Now
77 °F

Broken clouds.


Feels Like: 79 °F
Forecast: 70 / 83 °F
Wind: 15 mph from Northeast

Location: King Shaka International Airport

Current Time: Jan 30, 2015 at 4:52:06 PM

Latest Report: Jan 30, 2015 at 4:00 PM


Visibility: N/A

Pressure: 29.95 "Hg

Humidity: 74%

Dew point: 68 °F

Location of DurbanLocation

Historic Weather in Durban — Graph

°F

Durban temperature yesterday

Maximum temperature yesterday: 73 °F (at 2:00 PM)
Minimum temperature yesterday: 68 °F (at 12:00 AM)
Average temperature yesterday: 71 °F

Past Weeks' High & Low Weather Summary

 TemperatureHumidityPressure
High88 °F (Jan 16, 1:00 PM)94% (Jan 19, 4:00 AM)30.21 "Hg (Jan 19, 4:00 AM)
Low63 °F (Jan 19, 4:00 AM)38% (Jan 17, 8:00 AM)29.50 "Hg (Jan 16, 3:00 PM)
Average74 °F75%29.96 "Hg
* Reported Jan 15 3:00 PM — Jan 30 3:00 PM, Durban, Weather by CustomWeather, © 2014

Note: Actual official high and low records may vary slightly from our data, if they occured in-between our weather recording intervals... More about our weather records

Advertising

Durban weather history for previous 24 hours

 ConditionsComfort  
Time TempWeatherWind HumidityBarometerVisibility
3:00 PM
Jan 30
77 °FPartly sunny.15 mph74%29.95 "HgN/A
2:00 PM79 °FScattered clouds.16 mph70%29.98 "HgN/A
1:00 PM79 °FScattered clouds.14 mph74%29.98 "HgN/A
12:00 PM75 °FPartly sunny.13 mph83%30.01 "HgN/A
11:00 AM77 °FBroken clouds.10 mph79%30.04 "HgN/A
10:00 AM75 °FBroken clouds.9 mph78%30.04 "HgN/A
9:00 AM73 °FPartly sunny.6 mph83%30.04 "HgN/A
8:00 AM72 °FPartly sunny.5 mph88%30.04 "HgN/A
7:00 AM70 °FLight rain. Partly sunny.2 mph88%30.04 "Hg4 mi
6:00 AM70 °FPartly sunny.2 mph88%30.04 "HgN/A
5:00 AM70 °FPartly sunny.3 mph88%30.04 "HgN/A
4:00 AM70 °FPassing clouds.2 mph94%30.04 "HgN/A
3:00 AM70 °FPassing clouds.1 mph88%30.04 "HgN/A
2:00 AM70 °FPassing clouds.3 mph88%30.07 "HgN/A
1:00 AM70 °FPassing clouds.3 mph88%30.07 "HgN/A
12:00 AM70 °FPassing clouds.5 mph88%30.09 "HgN/A
11:00 PM
Jan 29
70 °FPassing clouds.7 mph88%30.09 "HgN/A
10:00 PM70 °FPassing clouds.5 mph88%30.09 "HgN/A
9:00 PM70 °FLight rain. Partly cloudy.6 mph88%30.09 "HgN/A
8:00 PM72 °FPartly cloudy.6 mph83%30.09 "HgN/A
7:00 PM72 °FPartly cloudy.5 mph83%30.07 "HgN/A
6:00 PM73 °FPassing clouds.3 mph78%30.04 "HgN/A
5:00 PM73 °FPartly sunny.3 mph78%30.04 "HgN/A
4:00 PM73 °FPartly sunny.5 mph74%30.04 "HgN/A
Weather by CustomWeather, © 2014

See weather overviewHow to use our weather pages